TimeMST,TemperatureF,Dew PointF,Humidity,Sea Level PressureIn,VisibilityMPH,Wind Direction,Wind SpeedMPH,Gust SpeedMPH,PrecipitationIn,Events,Conditions,WindDirDegrees,DateUTC
12:53 AM,30.9,19.0,61,29.63,10.0,NNW,12.7,-,N/A,,Clear,330,2011-11-06 06:53:00
1:53 AM,30.0,18.0,61,29.66,10.0,WNW,10.4,-,N/A,,Clear,300,2011-11-06 07:53:00
1:53 AM,28.9,16.0,58,29.70,10.0,NW,12.7,-,N/A,,Clear,310,2011-11-06 08:53:00
2:53 AM,28.0,16.0,61,29.74,10.0,NNW,10.4,-,N/A,,Clear,330,2011-11-06 09:53:00
3:53 AM,26.1,15.1,63,29.78,10.0,NNW,8.1,-,N/A,,Clear,330,2011-11-06 10:53:00
4:53 AM,23.0,16.0,74,29.83,10.0,West,5.8,-,N/A,,Clear,280,2011-11-06 11:53:00
5:53 AM,21.9,15.1,75,29.89,10.0,NNW,3.5,-,N/A,,Clear,330,2011-11-06 12:53:00
6:53 AM,24.1,16.0,71,29.93,10.0,NNW,3.5,-,N/A,,Clear,330,2011-11-06 13:53:00
7:53 AM,33.1,16.0,50,29.91,10.0,NNW,4.6,-,N/A,,Clear,330,2011-11-06 14:53:00
8:53 AM,36.0,12.9,39,29.92,10.0,WNW,4.6,-,N/A,,Clear,290,2011-11-06 15:53:00
9:53 AM,37.9,15.1,39,29.94,10.0,West,3.5,-,N/A,,Clear,270,2011-11-06 16:53:00
10:53 AM,42.1,19.0,40,29.94,10.0,South,11.5,16.1,N/A,,Clear,180,2011-11-06 17:53:00
11:53 AM,44.1,23.0,43,29.92,10.0,South,15.0,-,N/A,,Clear,190,2011-11-06 18:53:00
1:53 PM,48.0,24.1,39,29.88,10.0,South,11.5,-,N/A,,Partly Cloudy,170,2011-11-06 20:53:00
2:53 PM,51.1,21.0,31,29.87,10.0,SSW,13.8,-,N/A,,Overcast,210,2011-11-06 21:53:00
3:53 PM,51.1,19.9,29,29.89,10.0,SSW,4.6,-,N/A,,Mostly Cloudy,210,2011-11-06 22:53:00
4:53 PM,39.0,25.0,57,29.97,10.0,North,9.2,-,N/A,,Clear,10,2011-11-06 23:53:00
5:53 PM,37.0,25.0,62,30.01,10.0,Calm,Calm,-,N/A,,Clear,0,2011-11-07 00:53:00
6:53 PM,37.9,23.0,55,30.03,10.0,SSW,6.9,-,N/A,,Clear,200,2011-11-07 01:53:00
7:53 PM,36.0,21.0,55,30.02,10.0,South,6.9,-,N/A,,Clear,180,2011-11-07 02:53:00
8:53 PM,37.0,21.0,52,30.02,10.0,South,11.5,-,N/A,,Clear,170,2011-11-07 03:53:00
9:53 PM,39.0,19.9,46,30.01,10.0,SSW,16.1,23.0,N/A,,Clear,200,2011-11-07 04:53:00
10:53 PM,35.1,19.9,54,30.03,10.0,SSW,9.2,-,N/A,,Clear,210,2011-11-07 05:53:00